Location: Eastchurch
(51.4000°N, 0.8667°E)
Time: 19:46:38
(UTC+00:00)

USA 267 - Pass Details

Date: 19 January 2026
Orbit: 1101 x 1107 km, 123.0° (Epoch: 10 January)

Event Time Altitude Azimuth Distance (km) Brightness Sun altitude
Exits shadow 17:09:54 - 79° (E) 3,190 5.0 -7.2°
Reaches altitude 10° 17:10:30 10° 78° (ENE) 2,965 4.9 -7.3°
Maximum altitude 17:16:50 55° 3° (N) 1,303 3.5 -8.2°
Drops below altitude 10° 17:23:11 10° 288° (WNW) 2,963 6.4 -9.1°
Sets 17:25:42 0° 284° (WNW) 3,921 7.2 -9.5°
